E-STAR
1 38079U 12006C   12362.82443454  .00043941  00000-0  98371-3 0  7523
2 38079 069.4813 228.3408 0677146 000.5150 359.6421 14.30905621 45111
GOLIAT
1 38085U 12006J   12362.06442101  .00043321  00000-0  97807-3 0  7204
2 38085 069.4822 231.1904 0683497 002.1162 358.2572 14.29384719 44970
HORYU-2
1 38340U 12025D   12362.24747567  .00000918  00000-0  15951-3 0  2966
2 38340 098.1956 302.6656 0013848 078.0330 282.2427 14.70496819 32844
RS-40
1 38736U 12041D   12362.29560778  .00000010  00000-0  00000 0 0  1456
2 38736 082.4780 262.3050 0019210 347.2165 012.8431 12.42649245 18891
PROITERES
1 38756U 12047B   12362.79151244  .00000409  00000-0  70265-4 0  3586
2 38756 098.2739 070.5670 0011572 295.4108 064.5891 14.74023185 16149
AENEAS
1 38760U 0        12359.48284668  .00003640  00000-0  33812-3 0 00242
2 38760 064.6739 089.2465 0216537 261.2495 096.3974 14.79896105003098
CSSWE-D
1 38761U 0        12359.41711196  .00003021  00000-0  28322-3 0 00217
2 38761 064.6739 089.4656 0218171 261.3429 096.2846 14.79725498003102
CXBN-E
1 38762U 0        12359.41141563  .00003488  00000-0  32340-3 0 00215
2 38762 064.6743 089.4492 0217899 261.0904 096.5412 14.79857891003179
OBJECT F
1 38763U 0        12359.34641318  .00002910  00000-0  27273-3 0 00219
2 38763 064.6732 089.6538 0218649 261.4015 096.2190 14.79750605003100
CINEMA-G
1 38764U 0        12359.41227137  .00003070  00000-0  28684-3 0 00201
2 38764 064.6726 089.4344 0218234 261.4111 096.2139 14.79795557003078
CP5
1 38765U 0        12359.54146210  .00003743  00000-0  34575-3 0 00201
2 38765 064.6740 088.9919 0217248 261.0239 096.6172 14.79949376003091
RAIKO
1 38852U 98067CN  12362.53677365  .00028768  00000-0  39040-3 0   915
2 38852 051.6473 239.2412 0017864 086.8661 273.4421 15.57218799 12985
FITSAT 1
1 38853U 98067CP  12362.89051014  .00035873  00000-0  46433-3 0   898
2 38853 051.6467 237.1147 0015667 105.7048 254.5673 15.58409142 13097
TechEdSat
1 38854U 98067CQ  12361.92719620  .00053489  00000-0  62445-3 0   980
2 38854 051.6451 241.1692 0015398 105.3498 254.9198 15.60943850 12959
F 1
1 38855U 98067CR  12362.12712913  .00051432  00000-0  60704-3 0  1019
2 38855 051.6448 240.2583 0015756 107.2941 252.9774 15.60669194 12872
WeWish
1 38856U 98067CS  12362.88956183  .00104741  00000-0  96563-3 0  1162
2 38856 051.6436 234.8406 0017162 112.3072 247.9747 15.66611068 13012
/EX




More information about the Keps mailing list